Showing default

PE2_FLT1 (TYVAK-0261), 59105

Orbit data source: Space-Track

PE2_FLT1 (TYVAK-0261), 59105 is a payload satellite owned by Tyvak NSS (US) in SSO that was launched on Mon, 04 Mar 2024 UTC via an FALCON 9 launch vehicle from the Air Force Western Test Range (AFWTR). Payload-class satellites include a variety of spacecraft equipped with specific instruments for various scientific and technological missions. These include communications satellites like Starlink; space stations such as the ISS; scientific satellites like the Hubble; Earth observation satellites from companies like Planet Labs, Umbra, and HawkEye 360; GPS; miniature CubeSats for education and research; and military/defense satellites.

Loading next visibility...
Identifier
59105, 2024-043H
Orbit
SSO
Country
Flag of USUS
Related business
Manufacturer
Tyvak NSS
Mission
Operational Commercial Technology
Bus & Motor
CUBESAT 12U, Unknown motor
Mass
26 kg wet, 26 kg dry
Launch date (UTC)
2024-03-04 (2 years ago)
Launch vehicle
FALCON 9
Launch site
Air Force Western Test Range (AFWTR)
Object type
Payload
Rocket body
Debris
Shape & HBR
Box + 2 Pan, 0.7 m
Radar Cross Section
0.149 m², Medium (>0.1 m² and < 1m²)

Expand to show TLE details & history
Last TLE update: 1 day ago

TLE from 1 day ago
0 PE2_FLT1 (TYVAK-0261)
1 59105U 24043H   26033.35095166  .00004074  00000-0  36587-3 0  9999
2 59105  97.8178 163.8759 0006422 125.1302 235.0522 14.96257994104481
Epoch: 2026-02-02T08:25Z
TLE epoch observation values (Epoch: 2026-02-02T08:25:22.223Z)
Latitude
0.00001°
Longitude
-95.01419°
Altitude
584.078 km
Speed
7.567 km/s
True Right ascension
10h 55m 30s
True Declination
0° 00' 00"
Sunlit
Object was in full shadow at epoch
Visualization orbit readout
Latitude
Unknown
Longitude
Unknown
Altitude
Unknown
Speed
Unknown
Apparent Right ascension
Unknown
Apparent Declination
Unknown
Sunlit
N/A
Visualization observer readout
Local Sidereal Time
13:53:41
Azimuth
Unknown
Elevation
Unknown
Doppler factor
Unknown
Orbital elements
Apogee altitude
579.952 km
Perigee altitude
571.021 km
Semi-major axis
6,953.623 km
Eccentricity
0.00064
Inclination
97.8178°
RAAN
163.8759°
Arg. of periapsis
125.1302°
True anomaly
234.99191°
Mean anomaly
235.0522°
Eccentric anomaly
235.02205°
Mean motion
3.74306 °/min
Orbital period
96.18 mins
BSTAR
0.00036587
Loading maneuver chart data...
Computing Atmospheric mass density...
Loading historical data...
Loading historical data...
Loading historical data...
Loading historical data...
Loading historical data...
Loading historical data...
Loading historical data...

Documentation

Showing up to 5 results
|